Location: London
(51.5074°N, 0.1278°W)
Time: 17:46:04
(UTC+01:00)

Envisat - Pass Details

Date: 04 October 2021
Orbit: 764 x 766 km, 98.2° (Epoch: 19 October)

Event Time Altitude Azimuth Distance (km) Brightness Sun altitude
Rises 19:01:41 0° 227° (SW) 3,225 7.0 -5.6°
Reaches altitude 10° 19:06:21 10° 267° (W) 2,307 7.3 -6.3°
Maximum altitude 19:07:18 11° 278° (W) 2,274 7.2 -6.5°
Drops below altitude 10° 19:08:16 10° 289° (WNW) 2,310 6.9 -6.6°
Sets 19:12:58 0° 328° (NNW) 3,244 6.8 -7.3°
